{"data":{"norad_id":43833,"intl_designator":"2018-102C","name":"SAUDISAT 5B","alt_names":[],"object_type":"PAYLOAD","status":"ACTIVE","operator":null,"country":"SAUD","launch_date":"2018-12-07","launch_site_code":"JSC","launch_vehicle":null,"mission":null,"orbit_class":"UNKNOWN","rcs_meters":null,"size_class":null,"mass_kg":null,"dimensions":null,"purposes":["earth_obs"],"wikipedia_slug":null,"has_3d_model":false,"image_url":null,"decayed_at":null,"tle_current":{"epoch":"2026-05-25T04:48:31.458240Z","epoch_age_seconds":54208,"freshness":"FRESH","line1":"1 43833U 18102C   26145.20036410  .00004918  00000+0  18229-3 0  9993","line2":"2 43833  97.3186 210.2549 0009591 209.0941 150.9766 15.28043017412281","mean_motion":15.28043017,"eccentricity":0.0009591,"inclination_deg":97.3186,"raan_deg":210.2549,"arg_perigee_deg":209.0941,"mean_anomaly_deg":150.9766,"bstar":0.00018229,"rev_number":41228,"period_min":94.238184657075,"perigee_km":475.08377248861,"apogee_km":488.24224086141,"semimajor_km":6859.800006675,"source":"CELESTRAK","updated_at":"2026-05-25T13:38:12.831967Z"}}}